| time (UTC) | temp F | wind direction | speed MPH | gust MPH | rain 1hr in | rain 24hr in | rain mn in | humidity % | barometer mb |
| 20260904060011 | 65 | 294 | 0.0 | 0.0 | 0.00 | 0.28 | 0.00 | 97 | 1013.9 |
| 20260904054513 | 66 | 294 | 0.0 | 0.0 | 0.00 | 0.30 | 0.00 | 97 | 1014.1 |
| 20260904053011 | 66 | 294 | 0.0 | 0.0 | 0.00 | 0.30 | 0.00 | 97 | 1014.1 |
| 20260904051515 | 66 | 294 | 0.0 | 2.0 | 0.00 | 0.30 | 0.00 | 97 | 1014.2 |
| 20260904050011 | 67 | 294 | 0.0 | 1.0 | 0.00 | 0.30 | 0.00 | 97 | 1014.4 |
| 20260904044511 | 66 | 45 | 0.0 | 0.0 | 0.00 | 0.30 | 0.00 | 97 | 1014.2 |
| 20260904043011 | 66 | 45 | 0.0 | 0.0 | 0.00 | 0.30 | 0.00 | 97 | 1014.2 |
| 20260904041511 | 66 | 45 | 0.0 | 0.0 | 0.00 | 0.30 | 0.00 | 97 | 1014.0 |
| 20260904040011 | 66 | 45 | 0.0 | 0.0 | 0.00 | 0.30 | 0.00 | 97 | 1013.9 |
| 20260904034511 | 67 | 45 | 0.0 | 0.0 | 0.00 | 0.30 | 0.30 | 97 | 1013.7 |
| 20260904033016 | 67 | 45 | 0.0 | 0.0 | 0.00 | 0.30 | 0.30 | 97 | 1013.6 |
| 20260904031511 | 68 | 45 | 0.0 | 0.0 | 0.00 | 0.30 | 0.30 | 97 | 1013.6 |
| 20260904030011 | 67 | 45 | 0.0 | 0.0 | 0.00 | 0.30 | 0.30 | 97 | 1013.6 |
| 20260904024511 | 67 | 45 | 0.0 | 0.0 | 0.00 | 0.30 | 0.30 | 97 | 1013.5 |
| 20260904023011 | 67 | 45 | 0.0 | 0.0 | 0.00 | 0.30 | 0.30 | 97 | 1013.4 |
| 20260904021512 | 67 | 45 | 0.0 | 0.0 | 0.00 | 0.30 | 0.30 | 97 | 1013.5 |
| 20260904020011 | 67 | 45 | 0.0 | 0.0 | 0.00 | 0.30 | 0.30 | 97 | 1013.3 |
| 20260904014512 | 66 | 45 | 0.0 | 0.0 | 0.00 | 0.33 | 0.30 | 97 | 1013.4 |
| 20260904013016 | 66 | 45 | 0.0 | 0.0 | 0.00 | 0.33 | 0.30 | 97 | 1013.3 |
| 20260904011514 | 66 | 45 | 0.0 | 0.0 | 0.00 | 0.33 | 0.30 | 97 | 1013.3 |
| 20260904010012 | 66 | 45 | 0.0 | 0.0 | 0.00 | 0.33 | 0.30 | 96 | 1013.0 |
| 20260904004512 | 67 | 45 | 0.0 | 0.0 | 0.00 | 0.46 | 0.30 | 96 | 1012.5 |
| 20260904003012 | 67 | 45 | 0.0 | 0.0 | 0.00 | 0.46 | 0.30 | 96 | 1012.2 |
| 20260904001512 | 67 | 45 | 0.0 | 0.0 | 0.00 | 0.46 | 0.30 | 96 | 1012.3 |
| 20260904000012 | 68 | 45 | 0.0 | 0.0 | 0.00 | 0.46 | 0.30 | 96 | 1012.2 |
| 20260903234512 | 68 | 45 | 0.0 | 1.0 | 0.00 | 0.47 | 0.30 | 96 | 1012.2 |
| 20260903233013 | 68 | 45 | 0.0 | 0.0 | 0.00 | 0.47 | 0.30 | 96 | 1012.3 |
| 20260903231513 | 68 | 45 | 0.0 | 0.0 | 0.00 | 0.47 | 0.30 | 96 | 1012.4 |
| 20260903230025 | 68 | 45 | 0.0 | 0.0 | 0.00 | 0.47 | 0.30 | 96 | 1012.1 |
| 20260903224512 | 68 | 45 | 0.0 | 2.0 | 0.00 | 0.48 | 0.30 | 96 | 1012.0 |
| 20260903223012 | 68 | 45 | 0.0 | 2.0 | 0.00 | 0.48 | 0.30 | 96 | 1010.8 |
| 20260903221515 | 68 | 45 | 1.0 | 3.0 | 0.02 | 0.48 | 0.30 | 96 | 1010.6 |
| 20260903220012 | 68 | 321 | 1.0 | 5.0 | 0.07 | 0.48 | 0.30 | 96 | 1011.4 |
| 20260903214528 | 70 | 319 | 2.0 | 6.0 | 0.12 | 0.60 | 0.30 | 96 | 1012.0 |
| 20260903213019 | 70 | 300 | 0.0 | 1.0 | 0.14 | 0.60 | 0.30 | 96 | 1011.8 |
| 20260903211512 | 70 | 300 | 0.0 | 5.0 | 0.20 | 0.57 | 0.28 | 96 | 1012.1 |
| 20260903210013 | 71 | 338 | 1.0 | 5.0 | 0.21 | 0.53 | 0.23 | 96 | 1013.3 |
| 20260903204513 | 71 | 313 | 1.0 | 6.0 | 0.17 | 0.48 | 0.18 | 95 | 1013.7 |
| 20260903203012 | 71 | 291 | 1.0 | 5.0 | 0.15 | 0.46 | 0.16 | 95 | 1013.1 |
| 20260903201512 | 72 | 278 | 1.0 | 4.0 | 0.07 | 0.38 | 0.08 | 95 | 1013.9 |
| 20260903200013 | 72 | 255 | 0.0 | 3.0 | 0.01 | 0.32 | 0.02 | 95 | 1013.9 |
| 20260903194513 | 72 | 254 | 0.0 | 3.0 | 0.00 | 0.31 | 0.01 | 94 | 1011.9 |
| 20260903193014 | 72 | 254 | 0.0 | 2.0 | 0.00 | 0.31 | 0.01 | 93 | 1011.8 |
| 20260903191513 | 73 | 254 | 0.0 | 4.0 | 0.00 | 0.31 | 0.01 | 93 | 1011.4 |
| 20260903190014 | 73 | 254 | 0.0 | 3.0 | 0.00 | 0.31 | 0.01 | 93 | 1011.8 |
| 20260903184513 | 73 | 253 | 0.0 | 2.0 | 0.00 | 0.31 | 0.01 | 93 | 1011.9 |
| 20260903183013 | 73 | 253 | 0.0 | 4.0 | 0.00 | 0.31 | 0.01 | 93 | 1012.1 |
| 20260903181517 | 73 | 253 | 0.0 | 6.0 | 0.00 | 0.31 | 0.01 | 92 | 1012.2 |
| 20260903180035 | 74 | 253 | 1.0 | 6.0 | 0.00 | 0.31 | 0.01 | 91 | 1012.7 |
| 20260903174514 | 75 | 253 | 1.0 | 6.0 | 0.00 | 0.31 | 0.01 | 90 | 1013.0 |
| 20260903173013 | 76 | 253 | 0.0 | 2.0 | 0.00 | 0.31 | 0.01 | 88 | 1012.7 |
| 20260903171514 | 78 | 253 | 1.0 | 3.0 | 0.00 | 0.31 | 0.01 | 86 | 1013.0 |
| 20260903170020 | 77 | 253 | 0.0 | 6.0 | 0.00 | 0.31 | 0.01 | 88 | 1012.8 |
| 20260903164514 | 77 | 253 | 0.0 | 3.0 | 0.00 | 0.31 | 0.01 | 89 | 1012.9 |
| 20260903163013 | 77 | 253 | 0.0 | 3.0 | 0.00 | 0.31 | 0.01 | 90 | 1013.0 |
| 20260903161516 | 75 | 253 | 1.0 | 6.0 | 0.00 | 0.31 | 0.01 | 92 | 1013.1 |
| 20260903160014 | 74 | 149 | 2.0 | 6.0 | 0.00 | 0.31 | 0.01 | 93 | 1013.2 |
| 20260903154514 | 73 | 148 | 1.0 | 5.0 | 0.00 | 0.31 | 0.01 | 94 | 1012.9 |
| 20260903153014 | 73 | 146 | 0.0 | 3.0 | 0.00 | 0.31 | 0.01 | 94 | 1012.7 |
| 20260903151514 | 73 | 146 | 0.0 | 6.0 | 0.00 | 0.31 | 0.01 | 95 | 1012.5 |
| 20260903150015 | 73 | 146 | 1.0 | 4.0 | 0.00 | 0.31 | 0.01 | 95 | 1012.3 |
| 20260903144520 | 73 | 146 | 1.0 | 4.0 | 0.00 | 0.31 | 0.01 | 96 | 1012.4 |
| 20260903143015 | 73 | 146 | 0.0 | 4.0 | 0.00 | 0.31 | 0.01 | 96 | 1012.6 |
| 20260903141521 | 72 | 146 | 0.0 | 3.0 | 0.00 | 0.31 | 0.01 | 97 | 1012.5 |
| 20260903140014 | 72 | 146 | 0.0 | 2.0 | 0.00 | 0.31 | 0.01 | 97 | 1012.4 |
| 20260903134514 | 72 | 146 | 0.0 | 2.0 | 0.00 | 0.31 | 0.01 | 97 | 1012.6 |
| 20260903133015 | 71 | 146 | 0.0 | 3.0 | 0.00 | 0.31 | 0.01 | 97 | 1012.5 |
| 20260903131515 | 70 | 146 | 1.0 | 3.0 | 0.00 | 0.31 | 0.01 | 97 | 1012.6 |
| 20260903130017 | 70 | 146 | 0.0 | 3.0 | 0.00 | 0.31 | 0.01 | 97 | 1012.7 |
| 20260903124514 | 69 | 146 | 0.0 | 4.0 | 0.00 | 0.31 | 0.01 | 97 | 1012.9 |
| 20260903123028 | 68 | 146 | 0.0 | 0.0 | 0.00 | 0.31 | 0.01 | 97 | 1012.8 |
| 20260903121515 | 67 | 146 | 0.0 | 1.0 | 0.00 | 0.31 | 0.01 | 97 | 1012.6 |
| 20260903120015 | 67 | 146 | 0.0 | 0.0 | 0.00 | 0.31 | 0.01 | 97 | 1012.6 |
| 20260903114515 | 66 | 146 | 0.0 | 0.0 | 0.00 | 0.31 | 0.01 | 97 | 1012.5 |
| 20260903113022 | 66 | 146 | 0.0 | 0.0 | 0.00 | 0.31 | 0.01 | 97 | 1012.4 |
| 20260903111515 | 66 | 146 | 0.0 | 3.0 | 0.00 | 0.31 | 0.01 | 97 | 1012.3 |
| 20260903110015 | 66 | 146 | 0.0 | 0.0 | 0.00 | 0.31 | 0.01 | 97 | 1012.2 |
| 20260903104515 | 66 | 146 | 0.0 | 1.0 | 0.00 | 0.31 | 0.01 | 97 | 1012.1 |
| 20260903103015 | 65 | 146 | 0.0 | 0.0 | 0.00 | 0.31 | 0.01 | 97 | 1012.0 |
| 20260903101516 | 66 | 146 | 0.0 | 0.0 | 0.00 | 0.31 | 0.01 | 97 | 1011.9 |
| 20260903100023 | 65 | 146 | 0.0 | 0.0 | 0.00 | 0.31 | 0.01 | 97 | 1011.8 |
| 20260903094515 | 66 | 146 | 0.0 | 0.0 | 0.00 | 0.31 | 0.01 | 97 | 1011.7 |
| 20260903093037 | 66 | 146 | 0.0 | 0.0 | 0.00 | 0.31 | 0.01 | 97 | 1011.6 |
| 20260903091516 | 66 | 146 | 0.0 | 0.0 | 0.00 | 0.31 | 0.01 | 97 | 1011.5 |
| 20260903090021 | 66 | 146 | 0.0 | 0.0 | 0.00 | 0.31 | 0.01 | 97 | 1011.4 |
| 20260903084527 | 66 | 146 | 0.0 | 0.0 | 0.00 | 0.31 | 0.01 | 97 | 1011.3 |
| 20260903083016 | 66 | 146 | 0.0 | 0.0 | 0.00 | 0.31 | 0.01 | 97 | 1011.3 |
| 20260903081516 | 67 | 146 | 0.0 | 0.0 | 0.00 | 0.31 | 0.01 | 97 | 1011.1 |
| 20260903080016 | 67 | 146 | 0.0 | 0.0 | 0.00 | 0.31 | 0.01 | 97 | 1011.2 |
| 20260903074516 | 67 | 146 | 0.0 | 0.0 | 0.00 | 0.31 | 0.01 | 97 | 1011.2 |
| 20260903073016 | 67 | 146 | 0.0 | 0.0 | 0.00 | 0.31 | 0.01 | 97 | 1011.1 |
| 20260903071519 | 67 | 146 | 0.0 | 0.0 | 0.00 | 0.31 | 0.01 | 97 | 1010.9 |
| 20260903070020 | 67 | 146 | 0.0 | 0.0 | 0.00 | 0.31 | 0.01 | 97 | 1010.9 |
| 20260903064516 | 68 | 146 | 0.0 | 0.0 | 0.00 | 0.31 | 0.01 | 97 | 1011.0 |
| 20260903063016 | 68 | 146 | 0.0 | 0.0 | 0.01 | 0.31 | 0.01 | 97 | 1011.2 |
| 20260903061517 | 68 | 146 | 0.0 | 2.0 | 0.01 | 0.31 | 0.01 | 97 | 1011.3 |